| time (UTC) | temp C | wind direction | speed KPH | gust KPH | rain 1hr cm | rain 24hr cm | rain mn cm | humidity % | barometer mb |
| 20260506114648 | 20 | 251 | 57.9 | 74.0 | 0.00 | 0.00 | 0.00 | 100 | 938.7 |
| 20260506114245 | 20 | 250 | 48.3 | 61.2 | 0.00 | 0.00 | 0.00 | 100 | 938.7 |
| 20260506113845 | 20 | 251 | 51.5 | 62.8 | 0.00 | 0.00 | 0.00 | 100 | 938.6 |
| 20260506113445 | 20 | 245 | 54.7 | 66.0 | 0.00 | 0.00 | 0.00 | 100 | 938.6 |
| 20260506113042 | 21 | 248 | 53.1 | 64.4 | 0.00 | 0.00 | 0.00 | 100 | 938.6 |
| 20260506112642 | 21 | 244 | 46.7 | 69.2 | 0.00 | 0.00 | 0.00 | 100 | 938.8 |
| 20260506112239 | 20 | 243 | 35.4 | 49.9 | 0.00 | 0.00 | 0.00 | 100 | 938.8 |
| 20260506111839 | 20 | 245 | 38.6 | 56.3 | 0.00 | 0.00 | 0.00 | 100 | 938.8 |
| 20260506111439 | 20 | 247 | 51.5 | 70.8 | 0.00 | 0.00 | 0.00 | 100 | 938.8 |
| 20260506111039 | 20 | 249 | 45.1 | 61.2 | 0.00 | 0.00 | 0.00 | 100 | 938.8 |
| 20260506110639 | 19 | 245 | 48.3 | 64.4 | 0.00 | 0.00 | 0.00 | 100 | 938.8 |
| 20260506110236 | 18 | 245 | 46.7 | 64.4 | 0.00 | 0.00 | 0.00 | 100 | 938.8 |
| 20260506105836 | 18 | 243 | 56.3 | 70.8 | 0.00 | 0.00 | 0.00 | 100 | 938.7 |
| 20260506105436 | 18 | 245 | 57.9 | 74.0 | 0.00 | 0.00 | 0.00 | 100 | 938.6 |
| 20260506105036 | 18 | 241 | 62.8 | 86.9 | 0.00 | 0.00 | 0.00 | 100 | 938.7 |
| 20260506104636 | 18 | 247 | 61.2 | 78.9 | 0.00 | 0.00 | 0.00 | 100 | 938.6 |
| 20260506104233 | 18 | 246 | 70.8 | 99.8 | 0.00 | 0.00 | 0.00 | 100 | 938.8 |
| 20260506103834 | 19 | 245 | 49.9 | 75.6 | 0.00 | 0.00 | 0.00 | 100 | 938.8 |
| 20260506103434 | 19 | 247 | 51.5 | 69.2 | 0.00 | 0.00 | 0.00 | 100 | 938.9 |
| 20260506103034 | 18 | 248 | 48.3 | 61.2 | 0.00 | 0.00 | 0.00 | 100 | 938.9 |
| 20260506102634 | 18 | 247 | 48.3 | 67.6 | 0.00 | 0.00 | 0.00 | 100 | 939.0 |
| 20260506102220 | 18 | 243 | 43.5 | 74.0 | 0.00 | 0.00 | 0.00 | 100 | 938.9 |
| 20260506101819 | 18 | 244 | 46.7 | 67.6 | 0.00 | 0.00 | 0.00 | 100 | 938.9 |
| 20260506101020 | 18 | 246 | 57.9 | 86.9 | 0.00 | 0.00 | 0.00 | 100 | 938.9 |
| 20260506100620 | 18 | 248 | 48.3 | 66.0 | 0.00 | 0.00 | 0.00 | 100 | 938.8 |
| 20260506100217 | 18 | 248 | 57.9 | 75.6 | 0.00 | 0.00 | 0.00 | 100 | 938.9 |
| 20260506095817 | 18 | 249 | 49.9 | 66.0 | 0.00 | 0.00 | 0.00 | 100 | 938.9 |
| 20260506095417 | 18 | 246 | 40.2 | 56.3 | 0.00 | 0.00 | 0.00 | 100 | 938.9 |
| 20260506095017 | 18 | 247 | 43.5 | 64.4 | 0.00 | 0.00 | 0.00 | 100 | 938.9 |
| 20260506094617 | 18 | 247 | 51.5 | 67.6 | 0.00 | 0.00 | 0.00 | 100 | 938.9 |
| 20260506094214 | 18 | 244 | 45.1 | 64.4 | 0.00 | 0.00 | 0.00 | 100 | 938.9 |
| 20260506093813 | 19 | 248 | 38.6 | 46.7 | 0.00 | 0.00 | 0.00 | 100 | 938.9 |
| 20260506093414 | 19 | 248 | 43.5 | 53.1 | 0.00 | 0.00 | 0.00 | 100 | 939.0 |
| 20260506093014 | 19 | 250 | 51.5 | 62.8 | 0.00 | 0.00 | 0.00 | 100 | 938.9 |
| 20260506092610 | 18 | 248 | 49.9 | 61.2 | 0.00 | 0.00 | 0.00 | 100 | 938.9 |
| 20260506092208 | 18 | 250 | 46.7 | 56.3 | 0.00 | 0.00 | 0.00 | 100 | 938.9 |
| 20260506091808 | 19 | 250 | 53.1 | 74.0 | 0.00 | 0.00 | 0.00 | 100 | 938.9 |
| 20260506091408 | 19 | 245 | 57.9 | 85.3 | 0.00 | 0.00 | 0.00 | 100 | 938.8 |
| 20260506091008 | 19 | 254 | 48.3 | 69.2 | 0.00 | 0.00 | 0.00 | 100 | 938.7 |
| 20260506090608 | 19 | 247 | 45.1 | 59.5 | 0.00 | 0.00 | 0.00 | 100 | 938.8 |
| 20260506090205 | 19 | 244 | 43.5 | 64.4 | 0.00 | 0.00 | 0.00 | 100 | 938.8 |
| 20260506085805 | 18 | 243 | 37.0 | 54.7 | 0.00 | 0.00 | 0.00 | 100 | 938.8 |
| 20260506085405 | 18 | 248 | 45.1 | 66.0 | 0.00 | 0.00 | 0.00 | 100 | 938.7 |
| 20260506085005 | 18 | 248 | 43.5 | 67.6 | 0.00 | 0.00 | 0.00 | 100 | 938.8 |
| 20260506084605 | 18 | 243 | 40.2 | 72.4 | 0.00 | 0.00 | 0.00 | 100 | 938.7 |
| 20260506084202 | 18 | 242 | 40.2 | 57.9 | 0.00 | 0.00 | 0.00 | 100 | 938.8 |
| 20260506083802 | 18 | 243 | 38.6 | 49.9 | 0.00 | 0.00 | 0.00 | 100 | 938.7 |
| 20260506083402 | 17 | 243 | 37.0 | 51.5 | 0.00 | 0.00 | 0.00 | 100 | 938.7 |
| 20260506083002 | 17 | 241 | 35.4 | 45.1 | 0.00 | 0.00 | 0.00 | 100 | 938.7 |
| 20260506082602 | 17 | 244 | 37.0 | 53.1 | 0.00 | 0.00 | 0.00 | 100 | 938.6 |
| 20260506082159 | 17 | 245 | 41.8 | 67.6 | 0.00 | 0.00 | 0.00 | 100 | 938.7 |
| 20260506081759 | 18 | 242 | 37.0 | 51.5 | 0.00 | 0.00 | 0.00 | 100 | 938.5 |
| 20260506081359 | 18 | 242 | 35.4 | 46.7 | 0.00 | 0.00 | 0.00 | 100 | 938.6 |
| 20260506081000 | 17 | 243 | 37.0 | 48.3 | 0.00 | 0.00 | 0.00 | 100 | 938.5 |
| 20260506080559 | 17 | 244 | 43.5 | 57.9 | 0.00 | 0.00 | 0.00 | 100 | 938.5 |
| 20260506080156 | 17 | 243 | 33.8 | 46.7 | 0.00 | 0.00 | 0.00 | 100 | 938.5 |
| 20260506072945 | 18 | 239 | 33.8 | 49.9 | 0.00 | 0.00 | 0.00 | 100 | 938.3 |
| 20260506072545 | 17 | 239 | 27.4 | 41.8 | 0.00 | 0.00 | 0.00 | 100 | 938.3 |
| 20260506072138 | 17 | 238 | 32.2 | 43.5 | 0.00 | 0.00 | 0.00 | 100 | 938.3 |
| 20260506071738 | 18 | 242 | 37.0 | 48.3 | 0.00 | 0.00 | 0.00 | 100 | 938.3 |
| 20260506071338 | 17 | 242 | 32.2 | 43.5 | 0.00 | 0.00 | 0.00 | 100 | 938.3 |
| 20260506070938 | 17 | 241 | 32.2 | 48.3 | 0.00 | 0.00 | 0.00 | 100 | 938.3 |
| 20260506070538 | 17 | 242 | 32.2 | 45.1 | 0.00 | 0.00 | 0.00 | 100 | 938.3 |
| 20260506070135 | 17 | 241 | 30.6 | 45.1 | 0.00 | 0.00 | 0.00 | 100 | 938.2 |
| 20260506062130 | 16 | 239 | 25.7 | 37.0 | 0.00 | 0.00 | 0.00 | 100 | 938.2 |
| 20260506061730 | 16 | 243 | 32.2 | 46.7 | 0.00 | 0.00 | 0.00 | 100 | 938.1 |
| 20260506061330 | 16 | 243 | 30.6 | 45.1 | 0.00 | 0.00 | 0.00 | 100 | 938.1 |
| 20260506060930 | 16 | 243 | 29.0 | 40.2 | 0.00 | 0.00 | 0.00 | 100 | 938.1 |
| 20260506060530 | 16 | 240 | 29.0 | 45.1 | 0.00 | 0.00 | 0.00 | 100 | 938.1 |
| 20260506060127 | 16 | 240 | 30.6 | 43.5 | 0.00 | 0.00 | 0.00 | 100 | 938.1 |
| 20260506051318 | 15 | 239 | 20.9 | 32.2 | 0.00 | 0.00 | 0.00 | 100 | 938.1 |
| 20260506050906 | 15 | 233 | 19.3 | 29.0 | 0.00 | 0.00 | 0.00 | 100 | 938.0 |
| 20260506050507 | 15 | 232 | 16.1 | 25.7 | 0.00 | 0.00 | 0.00 | 100 | 938.0 |
| 20260506050104 | 15 | 231 | 17.7 | 29.0 | 0.00 | 0.00 | 0.00 | 100 | 938.1 |
| 20260506044904 | 14 | 231 | 14.5 | 24.1 | 0.00 | 0.00 | 0.00 | 100 | 938.1 |
| 20260506044504 | 14 | 230 | 12.9 | 22.5 | 0.00 | 0.00 | 0.00 | 100 | 938.0 |
| 20260506044101 | 14 | 228 | 17.7 | 22.5 | 0.00 | 0.00 | 0.00 | 100 | 938.0 |
| 20260506043701 | 14 | 229 | 17.7 | 22.5 | 0.00 | 0.00 | 0.00 | 100 | 938.0 |
| 20260506043301 | 14 | 227 | 16.1 | 20.9 | 0.00 | 0.00 | 0.00 | 100 | 938.0 |
| 20260506042901 | 14 | 227 | 19.3 | 24.1 | 0.00 | 0.00 | 0.00 | 100 | 938.0 |
| 20260506042501 | 14 | 228 | 25.7 | 29.0 | 0.00 | 0.00 | 0.00 | 100 | 938.0 |
| 20260506042058 | 14 | 229 | 25.7 | 30.6 | 0.00 | 0.00 | 0.00 | 100 | 938.0 |
| 20260506041658 | 14 | 230 | 25.7 | 33.8 | 0.00 | 0.00 | 0.00 | 100 | 938.0 |
| 20260506041258 | 14 | 231 | 24.1 | 27.4 | 0.00 | 0.00 | 0.00 | 100 | 938.0 |
| 20260506040858 | 13 | 230 | 25.7 | 30.6 | 0.00 | 0.00 | 0.00 | 100 | 938.0 |
| 20260506040458 | 13 | 230 | 27.4 | 32.2 | 0.00 | 0.00 | 0.00 | 100 | 938.0 |
| 20260506040055 | 13 | 230 | 24.1 | 32.2 | 0.00 | 0.00 | 0.00 | 100 | 938.0 |
| 20260506035656 | 13 | 230 | 27.4 | 30.6 | 0.00 | 0.00 | 0.00 | 100 | 938.0 |
| 20260506035256 | 14 | 234 | 27.4 | 32.2 | 0.00 | 0.00 | 0.00 | 100 | 938.0 |
| 20260506034456 | 14 | 240 | 29.0 | 32.2 | 0.00 | 0.00 | 0.00 | 100 | 938.0 |
| 20260506034053 | 14 | 239 | 29.0 | 33.8 | 0.00 | 0.00 | 0.00 | 100 | 938.0 |
| 20260506033652 | 14 | 237 | 30.6 | 37.0 | 0.00 | 0.00 | 0.00 | 100 | 938.0 |
| 20260506033252 | 14 | 230 | 32.2 | 40.2 | 0.00 | 0.00 | 0.00 | 100 | 937.9 |
| 20260506032852 | 13 | 231 | 30.6 | 35.4 | 0.00 | 0.00 | 0.00 | 100 | 937.9 |
| 20260506032452 | 13 | 231 | 29.0 | 38.6 | 0.00 | 0.00 | 0.00 | 100 | 937.9 |
| 20260506032049 | 13 | 232 | 29.0 | 33.8 | 0.00 | 0.00 | 0.00 | 100 | 938.0 |
| 20260506031650 | 13 | 221 | 25.7 | 29.0 | 0.00 | 0.00 | 0.00 | 100 | 937.9 |
| 20260506031246 | 13 | 221 | 25.7 | 29.0 | 0.00 | 0.00 | 0.00 | 100 | 938.0 |
| 20260506030846 | 13 | 221 | 25.7 | 29.0 | 0.00 | 0.00 | 0.00 | 100 | 938.0 |
| 20260506030446 | 13 | 221 | 19.3 | 25.7 | 0.00 | 0.00 | 0.00 | 100 | 937.9 |
| 20260506030043 | 13 | 226 | 22.5 | 29.0 | 0.00 | 0.00 | 0.00 | 100 | 937.9 |
| 20260506025643 | 13 | 227 | 19.3 | 25.7 | 0.00 | 0.00 | 0.00 | 100 | 937.9 |
| 20260506025243 | 13 | 225 | 19.3 | 24.1 | 0.00 | 0.00 | 0.00 | 100 | 937.9 |
| 20260506024843 | 13 | 222 | 16.1 | 24.1 | 0.00 | 0.00 | 0.00 | 100 | 937.9 |
| 20260506024444 | 13 | 228 | 19.3 | 22.5 | 0.00 | 0.00 | 0.00 | 100 | 937.8 |
| 20260506024041 | 13 | 227 | 19.3 | 27.4 | 0.00 | 0.00 | 0.00 | 100 | 937.9 |
| 20260506023641 | 14 | 235 | 20.9 | 24.1 | 0.00 | 0.00 | 0.00 | 100 | 937.9 |
| 20260506023232 | 14 | 233 | 25.7 | 30.6 | 0.00 | 0.00 | 0.00 | 100 | 937.9 |
| 20260506022832 | 14 | 236 | 22.5 | 29.0 | 0.00 | 0.00 | 0.00 | 100 | 937.9 |
| 20260506022432 | 15 | 237 | 22.5 | 33.8 | 0.00 | 0.00 | 0.00 | 100 | 937.9 |
| 20260506022029 | 15 | 236 | 20.9 | 30.6 | 0.00 | 0.00 | 0.00 | 100 | 937.9 |
| 20260506021629 | 15 | 235 | 22.5 | 30.6 | 0.00 | 0.00 | 0.00 | 100 | 937.9 |
| 20260506021229 | 14 | 237 | 22.5 | 32.2 | 0.00 | 0.00 | 0.00 | 100 | 937.9 |
| 20260506020829 | 14 | 237 | 19.3 | 35.4 | 0.00 | 0.00 | 0.00 | 100 | 937.9 |
| 20260506020430 | 14 | 233 | 25.7 | 37.0 | 0.00 | 0.00 | 0.00 | 100 | 937.9 |
| 20260506020027 | 14 | 234 | 32.2 | 35.4 | 0.00 | 0.00 | 0.00 | 100 | 937.9 |
| 20260506015627 | 15 | 234 | 25.7 | 32.2 | 0.00 | 0.00 | 0.00 | 100 | 937.9 |
| 20260506015227 | 15 | 235 | 20.9 | 30.6 | 0.00 | 0.00 | 0.00 | 100 | 938.0 |
| 20260506014827 | 15 | 236 | 20.9 | 29.0 | 0.00 | 0.00 | 0.00 | 100 | 937.9 |
| 20260506014427 | 15 | 233 | 20.9 | 33.8 | 0.00 | 0.00 | 0.00 | 100 | 937.9 |
| 20260506014024 | 15 | 236 | 19.3 | 29.0 | 0.00 | 0.00 | 0.00 | 100 | 938.0 |
| 20260506013624 | 15 | 235 | 19.3 | 27.4 | 0.00 | 0.00 | 0.00 | 100 | 938.0 |
| 20260506013224 | 15 | 236 | 24.1 | 32.2 | 0.00 | 0.00 | 0.00 | 100 | 938.0 |
| 20260506012824 | 15 | 236 | 20.9 | 33.8 | 0.00 | 0.00 | 0.00 | 100 | 938.0 |
| 20260506012424 | 15 | 238 | 22.5 | 30.6 | 0.00 | 0.00 | 0.00 | 100 | 938.0 |
| 20260506012021 | 15 | 238 | 20.9 | 27.4 | 0.00 | 0.00 | 0.00 | 100 | 937.9 |
| 20260506011621 | 15 | 238 | 19.3 | 24.1 | 0.00 | 0.00 | 0.00 | 100 | 937.9 |
| 20260506011221 | 15 | 240 | 20.9 | 29.0 | 0.00 | 0.00 | 0.00 | 100 | 937.9 |
| 20260506010818 | 15 | 237 | 17.7 | 22.5 | 0.00 | 0.00 | 0.00 | 100 | 938.0 |
| 20260506010418 | 15 | 237 | 20.9 | 27.4 | 0.00 | 0.00 | 0.00 | 100 | 938.0 |
| 20260506010015 | 15 | 237 | 17.7 | 24.1 | 0.00 | 0.00 | 0.00 | 100 | 938.0 |
| 20260506005615 | 15 | 237 | 20.9 | 32.2 | 0.00 | 0.00 | 0.00 | 100 | 938.0 |
| 20260506005215 | 15 | 237 | 16.1 | 27.4 | 0.00 | 0.00 | 0.00 | 100 | 938.0 |
| 20260506004815 | 15 | 238 | 16.1 | 20.9 | 0.00 | 0.00 | 0.00 | 100 | 938.0 |
| 20260506004415 | 15 | 237 | 17.7 | 30.6 | 0.00 | 0.00 | 0.00 | 100 | 938.0 |
| 20260506004012 | 15 | 236 | 19.3 | 25.7 | 0.00 | 0.00 | 0.00 | 100 | 938.0 |
| 20260506003612 | 15 | 236 | 19.3 | 29.0 | 0.00 | 0.00 | 0.00 | 100 | 938.0 |
| 20260506003212 | 16 | 237 | 16.1 | 22.5 | 0.00 | 0.00 | 0.00 | 100 | 937.9 |
| 20260506002812 | 16 | 236 | 14.5 | 19.3 | 0.00 | 0.00 | 0.00 | 100 | 937.9 |
| 20260506002412 | 16 | 237 | 19.3 | 29.0 | 0.00 | 0.00 | 0.00 | 100 | 937.9 |
| 20260506002009 | 16 | 237 | 19.3 | 30.6 | 0.00 | 0.00 | 0.00 | 100 | 937.9 |
| 20260506001609 | 16 | 236 | 17.7 | 32.2 | 0.00 | 0.00 | 0.00 | 100 | 937.9 |
| 20260506001209 | 16 | 237 | 19.3 | 29.0 | 0.00 | 0.00 | 0.00 | 100 | 937.9 |
| 20260506000809 | 16 | 237 | 17.7 | 30.6 | 0.00 | 0.00 | 0.00 | 100 | 937.9 |
| 20260506000409 | 16 | 238 | 17.7 | 20.9 | 0.00 | 0.00 | 0.00 | 100 | 937.9 |
| 20260505235955 | 16 | 238 | 17.7 | 25.7 | 0.00 | 0.00 | 0.00 | 100 | 938.0 |
| 20260505235555 | 15 | 236 | 16.1 | 20.9 | 0.00 | 0.00 | 0.00 | 100 | 938.0 |
| 20260505234755 | 15 | 236 | 17.7 | 27.4 | 0.00 | 0.00 | 0.00 | 100 | 938.0 |
| 20260505234355 | 15 | 236 | 17.7 | 24.1 | 0.00 | 0.00 | 0.00 | 100 | 938.0 |
| 20260505233952 | 15 | 235 | 17.7 | 25.7 | 0.00 | 0.00 | 0.00 | 100 | 938.1 |
| 20260505233552 | 15 | 235 | 16.1 | 27.4 | 0.00 | 0.00 | 0.00 | 100 | 938.1 |
| 20260505233153 | 15 | 236 | 16.1 | 22.5 | 0.00 | 0.00 | 0.00 | 100 | 938.2 |
| 20260505232753 | 15 | 233 | 14.5 | 20.9 | 0.00 | 0.00 | 0.00 | 100 | 938.2 |
| 20260505232353 | 15 | 234 | 16.1 | 25.7 | 0.00 | 0.00 | 0.00 | 100 | 938.2 |
| 20260505231950 | 15 | 235 | 14.5 | 19.3 | 0.00 | 0.00 | 0.00 | 100 | 938.3 |
| 20260505231549 | 16 | 237 | 14.5 | 20.9 | 0.00 | 0.00 | 0.00 | 100 | 938.3 |
| 20260505231149 | 16 | 236 | 16.1 | 29.0 | 0.00 | 0.00 | 0.00 | 100 | 938.3 |
| 20260505230749 | 16 | 237 | 14.5 | 20.9 | 0.00 | 0.00 | 0.00 | 100 | 938.3 |
| 20260505230346 | 16 | 237 | 16.1 | 20.9 | 0.00 | 0.00 | 0.00 | 100 | 938.4 |
| 20260505225943 | 16 | 238 | 12.9 | 17.7 | 0.00 | 0.00 | 0.00 | 100 | 938.4 |
| 20260505225543 | 16 | 236 | 14.5 | 25.7 | 0.00 | 0.00 | 0.00 | 100 | 938.4 |
| 20260505225143 | 16 | 235 | 19.3 | 30.6 | 0.00 | 0.00 | 0.00 | 100 | 938.5 |
| 20260505224743 | 16 | 236 | 17.7 | 24.1 | 0.00 | 0.00 | 0.00 | 100 | 938.5 |
| 20260505224344 | 16 | 236 | 17.7 | 27.4 | 0.00 | 0.00 | 0.00 | 100 | 938.5 |
| 20260505223941 | 16 | 236 | 16.1 | 20.9 | 0.00 | 0.00 | 0.00 | 100 | 938.5 |
| 20260505223541 | 16 | 236 | 16.1 | 22.5 | 0.00 | 0.00 | 0.00 | 100 | 938.6 |
| 20260505223141 | 16 | 237 | 16.1 | 22.5 | 0.00 | 0.00 | 0.00 | 100 | 938.6 |
| 20260505222741 | 16 | 237 | 16.1 | 19.3 | 0.00 | 0.00 | 0.00 | 100 | 938.6 |
| 20260505222341 | 16 | 234 | 14.5 | 17.7 | 0.00 | 0.00 | 0.00 | 100 | 938.7 |
| 20260505221938 | 16 | 236 | 17.7 | 25.7 | 0.00 | 0.00 | 0.00 | 100 | 938.7 |
| 20260505221538 | 16 | 238 | 17.7 | 20.9 | 0.00 | 0.00 | 0.00 | 100 | 938.7 |
| 20260505221138 | 16 | 236 | 17.7 | 24.1 | 0.00 | 0.00 | 0.00 | 100 | 938.7 |
| 20260505220738 | 16 | 236 | 16.1 | 19.3 | 0.00 | 0.00 | 0.00 | 100 | 938.7 |
| 20260505220338 | 16 | 233 | 16.1 | 17.7 | 0.00 | 0.00 | 0.00 | 100 | 938.7 |
| 20260505215936 | 16 | 234 | 16.1 | 24.1 | 0.00 | 0.00 | 0.00 | 100 | 938.7 |
| 20260505215535 | 16 | 232 | 16.1 | 24.1 | 0.00 | 0.00 | 0.00 | 100 | 938.7 |
| 20260505215135 | 16 | 232 | 14.5 | 17.7 | 0.00 | 0.00 | 0.00 | 100 | 938.7 |
| 20260505214735 | 17 | 230 | 16.1 | 20.9 | 0.00 | 0.00 | 0.00 | 100 | 938.8 |
| 20260505214335 | 17 | 228 | 17.7 | 22.5 | 0.00 | 0.00 | 0.00 | 100 | 938.8 |
| 20260505213932 | 17 | 228 | 16.1 | 27.4 | 0.00 | 0.00 | 0.00 | 100 | 938.8 |
| 20260505213532 | 17 | 227 | 17.7 | 25.7 | 0.00 | 0.00 | 0.00 | 100 | 938.8 |
| 20260505213132 | 17 | 228 | 19.3 | 25.7 | 0.00 | 0.00 | 0.00 | 100 | 938.8 |
| 20260505212732 | 17 | 232 | 16.1 | 24.1 | 0.00 | 0.00 | 0.00 | 100 | 938.8 |
| 20260505212323 | 17 | 233 | 19.3 | 29.0 | 0.00 | 0.00 | 0.00 | 100 | 938.8 |
| 20260505211920 | 17 | 236 | 19.3 | 27.4 | 0.00 | 0.00 | 0.00 | 100 | 938.8 |
| 20260505211520 | 17 | 235 | 22.5 | 30.6 | 0.00 | 0.00 | 0.00 | 100 | 938.9 |
| 20260505210721 | 17 | 236 | 20.9 | 27.4 | 0.00 | 0.00 | 0.00 | 100 | 938.9 |
| 20260505210321 | 17 | 236 | 24.1 | 38.6 | 0.00 | 0.00 | 0.00 | 100 | 938.9 |
| 20260505205914 | 17 | 235 | 24.1 | 33.8 | 0.00 | 0.00 | 0.00 | 100 | 938.9 |
| 20260505205514 | 17 | 236 | 22.5 | 29.0 | 0.00 | 0.00 | 0.00 | 100 | 938.9 |
| 20260505205114 | 17 | 235 | 22.5 | 35.4 | 0.00 | 0.00 | 0.00 | 100 | 938.9 |
| 20260505204714 | 17 | 235 | 22.5 | 32.2 | 0.00 | 0.00 | 0.00 | 100 | 938.9 |
| 20260505204314 | 17 | 237 | 22.5 | 29.0 | 0.00 | 0.00 | 0.00 | 100 | 938.9 |
| 20260505203911 | 17 | 235 | 22.5 | 33.8 | 0.00 | 0.00 | 0.00 | 100 | 938.9 |
| 20260505203511 | 17 | 235 | 22.5 | 30.6 | 0.00 | 0.00 | 0.00 | 100 | 938.9 |
| 20260505203111 | 17 | 235 | 20.9 | 33.8 | 0.00 | 0.00 | 0.00 | 100 | 938.9 |
| 20260505202711 | 17 | 237 | 25.7 | 35.4 | 0.00 | 0.00 | 0.00 | 100 | 938.9 |
| 20260505202311 | 17 | 236 | 24.1 | 38.6 | 0.00 | 0.00 | 0.00 | 100 | 938.9 |
| 20260505201908 | 17 | 237 | 24.1 | 38.6 | 0.00 | 0.00 | 0.00 | 100 | 938.9 |
| 20260505201508 | 17 | 237 | 24.1 | 35.4 | 0.00 | 0.00 | 0.00 | 100 | 938.9 |
| 20260505201108 | 17 | 238 | 29.0 | 40.2 | 0.00 | 0.00 | 0.00 | 100 | 938.9 |
| 20260505200709 | 17 | 234 | 24.1 | 33.8 | 0.00 | 0.00 | 0.00 | 100 | 938.9 |
| 20260505200308 | 17 | 236 | 22.5 | 33.8 | 0.00 | 0.00 | 0.00 | 100 | 938.9 |
| 20260505195906 | 17 | 237 | 24.1 | 33.8 | 0.00 | 0.00 | 0.00 | 100 | 938.9 |
| 20260505195506 | 17 | 236 | 20.9 | 35.4 | 0.00 | 0.00 | 0.00 | 100 | 938.9 |
| 20260505195106 | 17 | 235 | 25.7 | 35.4 | 0.00 | 0.00 | 0.00 | 100 | 938.9 |
| 20260505194706 | 17 | 236 | 22.5 | 29.0 | 0.00 | 0.00 | 0.00 | 100 | 938.9 |
| 20260505194306 | 17 | 237 | 24.1 | 35.4 | 0.00 | 0.00 | 0.00 | 100 | 938.9 |
| 20260505193903 | 17 | 237 | 22.5 | 30.6 | 0.00 | 0.00 | 0.00 | 100 | 938.9 |
| 20260505193503 | 17 | 235 | 20.9 | 30.6 | 0.00 | 0.00 | 0.00 | 100 | 938.9 |
| 20260505193103 | 17 | 236 | 22.5 | 32.2 | 0.00 | 0.00 | 0.00 | 100 | 938.9 |
| 20260505192703 | 17 | 236 | 19.3 | 27.4 | 0.00 | 0.00 | 0.00 | 100 | 938.9 |
| 20260505192305 | 17 | 237 | 22.5 | 32.2 | 0.00 | 0.00 | 0.00 | 100 | 938.9 |
| 20260505191900 | 17 | 236 | 27.4 | 35.4 | 0.00 | 0.00 | 0.00 | 100 | 938.9 |
| 20260505191500 | 17 | 237 | 30.6 | 35.4 | 0.00 | 0.00 | 0.00 | 100 | 938.9 |
| 20260505191100 | 17 | 237 | 30.6 | 35.4 | 0.00 | 0.00 | 0.00 | 100 | 938.9 |
| 20260505190700 | 17 | 235 | 32.2 | 38.6 | 0.00 | 0.00 | 0.00 | 100 | 938.9 |
| 20260505190300 | 17 | 235 | 30.6 | 37.0 | 0.00 | 0.00 | 0.00 | 100 | 938.9 |
| 20260505185857 | 17 | 236 | 30.6 | 37.0 | 0.00 | 0.00 | 0.00 | 100 | 938.9 |
| 20260505185454 | 17 | 233 | 30.6 | 37.0 | 0.00 | 0.00 | 0.00 | 100 | 938.9 |
| 20260505185054 | 17 | 233 | 33.8 | 38.6 | 0.00 | 0.00 | 0.00 | 100 | 938.9 |
| 20260505184642 | 17 | 235 | 32.2 | 40.2 | 0.00 | 0.00 | 0.00 | 100 | 938.9 |
| 20260505184242 | 17 | 236 | 33.8 | 37.0 | 0.00 | 0.00 | 0.00 | 100 | 938.8 |
| 20260505183839 | 17 | 234 | 32.2 | 37.0 | 0.00 | 0.00 | 0.00 | 100 | 938.9 |
| 20260505183439 | 17 | 234 | 35.4 | 41.8 | 0.00 | 0.00 | 0.00 | 100 | 938.8 |
| 20260505183040 | 17 | 234 | 33.8 | 40.2 | 0.00 | 0.00 | 0.00 | 100 | 938.8 |
| 20260505182640 | 18 | 236 | 33.8 | 41.8 | 0.00 | 0.00 | 0.00 | 100 | 938.8 |
| 20260505182240 | 18 | 237 | 35.4 | 40.2 | 0.00 | 0.00 | 0.00 | 100 | 938.8 |
| 20260505181837 | 18 | 237 | 30.6 | 40.2 | 0.00 | 0.00 | 0.00 | 100 | 938.8 |
| 20260505181437 | 18 | 237 | 35.4 | 48.3 | 0.00 | 0.00 | 0.00 | 100 | 938.8 |
| 20260505181037 | 18 | 237 | 35.4 | 43.5 | 0.00 | 0.00 | 0.00 | 100 | 938.8 |
| 20260505180637 | 18 | 236 | 30.6 | 45.1 | 0.00 | 0.00 | 0.00 | 100 | 938.8 |
| 20260505180237 | 18 | 235 | 29.0 | 38.6 | 0.00 | 0.00 | 0.00 | 100 | 938.9 |
| 20260505175834 | 18 | 235 | 33.8 | 43.5 | 0.00 | 0.00 | 0.00 | 100 | 938.9 |
| 20260505175434 | 18 | 237 | 33.8 | 41.8 | 0.00 | 0.00 | 0.00 | 100 | 938.8 |
| 20260505175034 | 18 | 237 | 37.0 | 45.1 | 0.00 | 0.00 | 0.00 | 100 | 938.9 |
| 20260505174634 | 18 | 239 | 37.0 | 45.1 | 0.00 | 0.00 | 0.00 | 100 | 938.9 |
| 20260505174234 | 18 | 240 | 35.4 | 53.1 | 0.00 | 0.00 | 0.00 | 100 | 938.9 |
| 20260505173831 | 18 | 236 | 35.4 | 41.8 | 0.00 | 0.00 | 0.00 | 100 | 938.9 |
| 20260505173431 | 18 | 237 | 33.8 | 38.6 | 0.00 | 0.00 | 0.00 | 100 | 938.9 |
| 20260505173031 | 18 | 240 | 35.4 | 43.5 | 0.00 | 0.00 | 0.00 | 100 | 938.9 |
| 20260505171829 | 19 | 240 | 38.6 | 45.1 | 0.00 | 0.00 | 0.00 | 100 | 938.9 |
| 20260505171428 | 19 | 240 | 38.6 | 48.3 | 0.00 | 0.00 | 0.00 | 100 | 938.9 |
| 20260505171028 | 19 | 238 | 43.5 | 53.1 | 0.00 | 0.00 | 0.00 | 100 | 938.9 |
| 20260505170628 | 19 | 241 | 38.6 | 48.3 | 0.00 | 0.00 | 0.00 | 100 | 938.9 |
| 20260505170228 | 19 | 238 | 37.0 | 49.9 | 0.00 | 0.00 | 0.00 | 100 | 938.9 |
| 20260505165825 | 19 | 240 | 41.8 | 54.7 | 0.00 | 0.00 | 0.00 | 100 | 938.9 |
| 20260505165426 | 19 | 243 | 38.6 | 46.7 | 0.00 | 0.00 | 0.00 | 100 | 938.9 |
| 20260505165022 | 19 | 243 | 37.0 | 41.8 | 0.00 | 0.00 | 0.00 | 100 | 939.0 |
| 20260505164622 | 19 | 244 | 38.6 | 46.7 | 0.00 | 0.00 | 0.00 | 100 | 939.0 |
| 20260505164222 | 19 | 244 | 35.4 | 40.2 | 0.00 | 0.00 | 0.00 | 100 | 939.0 |
| 20260505163819 | 19 | 243 | 40.2 | 56.3 | 0.00 | 0.00 | 0.00 | 100 | 939.0 |
| 20260505163419 | 20 | 239 | 38.6 | 45.1 | 0.00 | 0.00 | 0.00 | 100 | 939.0 |
| 20260505163019 | 20 | 241 | 35.4 | 45.1 | 0.00 | 0.00 | 0.00 | 100 | 939.0 |
| 20260505162619 | 20 | 242 | 45.1 | 53.1 | 0.00 | 0.00 | 0.00 | 100 | 939.1 |
| 20260505162219 | 20 | 244 | 45.1 | 54.7 | 0.00 | 0.00 | 0.00 | 100 | 939.0 |
| 20260505161816 | 20 | 243 | 38.6 | 51.5 | 0.00 | 0.00 | 0.00 | 100 | 939.0 |
| 20260505161416 | 20 | 247 | 43.5 | 54.7 | 0.00 | 0.00 | 0.00 | 100 | 939.1 |
| 20260505161008 | 20 | 242 | 46.7 | 64.4 | 0.00 | 0.00 | 0.00 | 100 | 939.1 |
| 20260505160608 | 20 | 244 | 38.6 | 53.1 | 0.00 | 0.00 | 0.00 | 100 | 939.2 |
| 20260505160208 | 20 | 243 | 40.2 | 49.9 | 0.00 | 0.00 | 0.00 | 100 | 939.2 |
| 20260505153003 | 20 | 241 | 38.6 | 57.9 | 0.00 | 0.00 | 0.00 | 100 | 939.4 |
| 20260505152603 | 21 | 242 | 41.8 | 54.7 | 0.00 | 0.00 | 0.00 | 100 | 939.4 |
| 20260505152203 | 21 | 244 | 43.5 | 53.1 | 0.00 | 0.00 | 0.00 | 100 | 939.4 |
| 20260505151800 | 21 | 241 | 37.0 | 53.1 | 0.00 | 0.00 | 0.00 | 100 | 939.5 |
| 20260505151400 | 21 | 242 | 46.7 | 61.2 | 0.00 | 0.00 | 0.00 | 100 | 939.6 |
| 20260505151000 | 21 | 243 | 33.8 | 51.5 | 0.00 | 0.00 | 0.00 | 100 | 939.5 |
| 20260505150559 | 21 | 242 | 41.8 | 61.2 | 0.00 | 0.00 | 0.00 | 100 | 939.5 |
| 20260505150159 | 22 | 245 | 48.3 | 61.2 | 0.00 | 0.00 | 0.00 | 100 | 939.5 |
| 20260505140548 | 22 | 250 | 43.5 | 49.9 | 0.00 | 0.00 | 0.00 | 100 | 939.8 |
| 20260505140148 | 22 | 247 | 46.7 | 57.9 | 0.00 | 0.00 | 0.00 | 100 | 939.8 |
| 20260505130128 | 22 | 244 | 38.6 | 54.7 | 0.00 | 0.00 | 0.00 | 100 | 940.3 |
| 20260505124925 | 22 | 245 | 40.2 | 57.9 | 0.00 | 0.00 | 0.00 | 100 | 940.4 |
| 20260505124525 | 22 | 245 | 38.6 | 53.1 | 0.00 | 0.00 | 0.00 | 100 | 940.5 |
| 20260505124122 | 22 | 245 | 43.5 | 59.5 | 0.00 | 0.00 | 0.00 | 100 | 940.4 |
| 20260505123719 | 23 | 243 | 38.6 | 56.3 | 0.00 | 0.00 | 0.00 | 100 | 940.5 |
| 20260505123319 | 22 | 246 | 38.6 | 48.3 | 0.00 | 0.00 | 0.00 | 100 | 940.5 |
| 20260505122920 | 22 | 247 | 38.6 | 48.3 | 0.00 | 0.00 | 0.00 | 100 | 940.5 |
| 20260505122519 | 22 | 247 | 46.7 | 59.5 | 0.00 | 0.00 | 0.00 | 100 | 940.6 |
| 20260505122119 | 22 | 243 | 45.1 | 64.4 | 0.00 | 0.00 | 0.00 | 100 | 940.6 |
| 20260505121716 | 22 | 248 | 43.5 | 61.2 | 0.00 | 0.00 | 0.00 | 100 | 940.7 |
| 20260505121316 | 22 | 247 | 45.1 | 56.3 | 0.00 | 0.00 | 0.00 | 100 | 940.7 |
| 20260505120917 | 22 | 242 | 40.2 | 54.7 | 0.00 | 0.00 | 0.00 | 100 | 940.7 |
| 20260505120517 | 22 | 243 | 43.5 | 57.9 | 0.00 | 0.00 | 0.00 | 100 | 940.8 |
| 20260505120117 | 22 | 242 | 38.6 | 49.9 | 0.00 | 0.00 | 0.00 | 100 | 940.8 |
| 20260505115714 | 22 | 248 | 46.7 | 59.5 | 0.00 | 0.00 | 0.00 | 100 | 940.8 |